This is the latest recevied weather packets stored in our database for station/object W4OA. If no packets are shown the sender has not sent any weather packets the latest 10 day(s).
| Time | Temp. | Humidity | Pressure | Rain* | Wind** | Luminosity | Snow |
|---|---|---|---|---|---|---|---|
| 1777751699 | 21.67° C | 40% | 1006 hPa | 0 mm | - | 0 W/m² | - |
| 1777751098 | 22.22° C | 41% | 1006 hPa | 0 mm | - | 0 W/m² | - |
| 1777750498 | 21.11° C | 45% | 1007 hPa | 0 mm | - | 0 W/m² | - |
| 1777750198 | 20.56° C | 45% | 1007 hPa | 0 mm | - | 0 W/m² | - |
| 1777749898 | 20.56° C | 46% | 1007 hPa | 0 mm | - | 0 W/m² | - |
| 1777749598 | 21.11° C | 52% | 1007 hPa | 0 mm | - | 0 W/m² | - |
| 1777749298 | 20.56° C | 47% | 1007 hPa | 0 mm | - | 0 W/m² | - |
| 1777748998 | 22.22° C | 46% | 1006 hPa | 0 mm | - | 0 W/m² | - |
| 1777748698 | 21.11° C | 46% | 1007 hPa | 0 mm | - | 0 W/m² | - |
| 1777748398 | 21.67° C | 45% | 1007 hPa | 0 mm | - | 0 W/m² | - |
| 1777748098 | 21.11° C | 50% | 1007 hPa | 0 mm | - | 0 W/m² | - |
| 1777747799 | 21.11° C | 50% | 1007 hPa | 0 mm | - | 0 W/m² | - |
| 1777746898 | 21.67° C | 48% | 1006 hPa | 0 mm | - | 0 W/m² | - |
| 1777746599 | 21.67° C | 51% | 1007 hPa | 0 mm | - | 0 W/m² | - |
| 1777746298 | 20.56° C | 50% | 1007 hPa | 0 mm | - | 0 W/m² | - |
| 1777745998 | 20° C | 50% | 1007 hPa | 0 mm | - | 0 W/m² | - |
| 1777745699 | 20.56° C | 50% | 1007 hPa | 0 mm | - | 0 W/m² | - |
| 1777745398 | 20.56° C | 50% | 1007 hPa | 0 mm | - | 0 W/m² | - |
| 1777745099 | 20° C | 51% | 1007 hPa | 0 mm | - | 0 W/m² | - |
| 1777744798 | 20° C | 52% | 1007 hPa | 0 mm | - | 0 W/m² | - |
| 1777744498 | 20° C | 53% | 1007 hPa | 0 mm | - | 0 W/m² | - |
| 1777744198 | 19.44° C | 53% | 1007 hPa | 0 mm | - | 0 W/m² | - |
| 1777743898 | 20° C | 55% | 1007 hPa | 0 mm | - | 0 W/m² | - |
| 1777743298 | 19.44° C | 54% | 1007 hPa | 0 mm | - | 0 W/m² | - |
| 1777742399 | 18.89° C | 54% | 1007 hPa | 0 mm | - | 0 W/m² | - |
* Rain latest hour (hover to see other rain measurements)
** Current wind speed in m/s (hover to see current wind gust speed)